Location: Juzet
(42.9779°N, 0.7597°E)
Time: 17:59:05
(UTC+00:00)

OE (NEXTSAT) - Pass Details

Date: 14 July 2020
Orbit: 430 x 439 km, 46.0° (Epoch: 12 August)

Event Time Altitude Azimuth Distance (km) Brightness Sun altitude
Exits shadow 03:53:37 - 246° (WSW) 1,683 6.7 -6.5°
Reaches altitude 10° 03:54:00 10° 245° (WSW) 1,523 6.4 -6.4°
Maximum altitude 03:57:27 81° 159° (SSE) 440 4.3 -5.9°
Drops below altitude 10° 04:00:54 10° 72° (ENE) 1,528 8.6 -5.4°
Sets 04:03:01 0° 71° (ENE) 2,397 9.8 -5.1°
